Showing default

NAVSTAR 79 (USA 304), 45854

Orbit data source: Space-Track

NAVSTAR 79 (USA 304), 45854 is a payload satellite owned by USSF SMC (US) in MEO that was launched on Tue, 30 Jun 2020 UTC via an FALCON 9 launch vehicle from the Air Force Eastern Test Range (AFETR). Payload-class satellites include a variety of spacecraft equipped with specific instruments for various scientific and technological missions. These include communications satellites like Starlink; space stations such as the ISS; scientific satellites like the Hubble; Earth observation satellites from companies like Planet Labs, Umbra, and HawkEye 360; GPS; miniature CubeSats for education and research; and military/defense satellites.

Loading next visibility...
Identifier
45854, 2020-041A
Orbit
MEO
Country
Flag of USUS
Related business
Manufacturer
LMSS Denver
Mission
Operational Defense Navigation
Bus & Motor
A2100, LEROS-1C?
Mass
4,400 kg wet, ~2,160 kg dry
Launch date (UTC)
2020-06-30 (6 years ago)
Launch vehicle
FALCON 9
Launch site
Air Force Eastern Test Range (AFETR)
Object type
Payload
Rocket body
Debris
Shape & HBR
Box + 2 Pan, 1.7 m
Radar Cross Section
7.740 m², Large (>1 m²)

Expand to show TLE details & history
Last TLE update: 3 days ago

TLE from 3 days ago
0 NAVSTAR 79 (USA 304)
1 45854U 20041A   26170.72346014 -.00000092  00000-0  00000-0 0  9998
2 45854  56.6713  28.8441 0064002 204.6185 152.4669  2.00558579 44081
Epoch: 2026-06-19T17:21Z
TLE epoch observation values (Epoch: 2026-06-19T17:21:46.956Z)
Latitude
-2.19662°
Longitude
-140.9795°
Altitude
20,334.123 km
Speed
3.852 km/s
True Right ascension
01h 49m 39s
True Declination
-2° 11' 35"
Sunlit
Object was in daylight at epoch
Visualization orbit readout
Latitude
Unknown
Longitude
Unknown
Altitude
Unknown
Speed
Unknown
Apparent Right ascension
Unknown
Apparent Declination
Unknown
Sunlit
N/A
Visualization observer readout
Local Sidereal Time
21:26:57
Azimuth
Unknown
Elevation
Unknown
Doppler factor
Unknown
Orbital elements
Apogee altitude
20,352.587 km
Perigee altitude
20,012.599 km
Semi-major axis
26,560.73 km
Eccentricity
0.0064
Inclination
56.6713°
RAAN
28.8441°
Arg. of periapsis
204.6185°
True anomaly
152.80354°
Mean anomaly
152.4669°
Eccentric anomaly
152.63546°
Mean motion
0.5014 °/min
Orbital period
717.99 mins
BSTAR
0
Loading maneuver chart data...
Computing Atmospheric mass density...
Loading historical data...
Loading historical data...
Loading historical data...
Loading historical data...
Loading historical data...
Loading historical data...
Loading historical data...
Other satellites on launch #41 in the year 2020 (2020-06-30 UTC)

Documentation

Showing up to 5 results
|